Location: Complexul Astronomic Baia Mare
(47.6577°N, 23.5639°E)
Time: 20:01:53
(UTC+03:00)

ISS - Pass Details

Date: 22 March 2017
Orbit: 399 x 409 km, 51.6° (Epoch: 27 March)

Event Time Altitude Azimuth Distance (km) Brightness Sun altitude
Exits shadow 04:46:58 40° 206° (SSW) 614 -3.3 -16.9°
Drops below altitude 10° 04:49:58 10° 142° (SE) 1,469 -0.8 -16.5°
Sets 04:52:06 0° 135° (SE) 2,327 0.4 -16.1°
